Regional Weather Roundup
Issued by NWS

Home | Current Version | Previous Version | Text Only | Print | Product List | Glossary On
Versions: 1 2 3 4 5 6 7 8 9 10 11 12 13 14 15 16 17 18 19 20 21 22 23 24 25 26 27 28 29 30 31 32 33 34 35 36 37 38 39 40 41 42 43 44 45 46 47 48 49 50
000
ASUS43 KBIS 090802
RWRND

NORTH DAKOTA REGIONAL WEATHER ROUNDUP
NATIONAL WEATHER SERVICE BISMARCK ND
200 AM CST FRI DEC 09 2016

NOTE: "FAIR" INDICATES FEW OR NO CLOUDS BELOW 12,000 FEET WITH NO
SIGNIFICANT WEATHER AND/OR OBSTRUCTIONS TO VISIBILITY.


NDZ001>003-009>011-017-090900-
NORTHWEST NORTH DAKOTA

CITY           SKY/WX    TMP DP  RH WIND       PRES   REMARKS
WILLISTON      CLOUDY   -16 -20  82 CALM      30.56F
MINOT          CLOUDY    -6 -11  79 W12       30.55S WCI -25
MINOT AFB      CLOUDY   -10 -15  78 W10       30.55S WCI -29
$$

NDZ018>021-031>035-040>046-090900-
SOUTHWEST NORTH DAKOTA

CITY           SKY/WX    TMP DP  RH WIND       PRES   REMARKS
BISMARCK       CLOUDY    -7 -11  83 CALM      30.58F
DICKINSON      CLOUDY   -11 -16  78 NW3       30.44F
GARRISON         N/A    -13 -17  82 N9        30.54S WCI -31
HETTINGER ARPT CLOUDY   -23 -28  78 W5        30.45F WCI -37
$$

NDZ004>008-012>016-024-026-027-054-090900-
NORTHEAST NORTH DAKOTA

CITY           SKY/WX    TMP DP  RH WIND       PRES   REMARKS
GRAND FORKS    FLURRIES   8   1  73 NW9       30.58S WCI  -5
GRND FRKS AFB  CLOUDY     7   0  72 NW7       30.58S WCI  -5
DEVILS LAKE    FLURRIES  -1  -5  82 NW12      30.55S WCI -18
$$

NDZ022-023-025-028>030-036>039-047>053-090900-
SOUTHEAST NORTH DAKOTA

CITY           SKY/WX    TMP DP  RH WIND       PRES   REMARKS
FARGO          CLOUDY     8   2  76 MISG      30.59S
JAMESTOWN      CLEAR     -7 -11  83 W7        30.55S WCI -21
$$




USA.gov is the U.S. government's official web portal to all federal, state and local government web resources and services.